Tracking 30505 objects as of 23-May-2025
HD Live streaming from Space Station
objects crossing your sky now

SHIYAN 27E

Track SHIYAN 27E now!
10-day predictions


NORAD ID: 63603
Int'l Code: 2025-078E
Perigee: 1,052.3 km
Apogee: 1,053.8 km
Inclination: 99.7 °
Period: 106.1 minutes
Semi major axis: 7424 km
RCS: Unknown
Launch date: April 18, 2025
Source: People's Republic of China (PRC)
Launch site: Taiyaun Space Center, China (TSC)
Your satellite tracking list
Your tracking list is empty




NASA's NSSDC Master Catalog

Two Line Element Set (TLE):
1 63603U 25078E   25143.59902796  .00000024  00000-0  95606-4 0  9998
2 63603  99.6903 151.6202 0001000  94.8251 265.3002 13.57201542  4689
Source of the keplerian elements: AFSPC